Regional Weather Roundup
Issued by NWS Dallas/Fort Worth, TX

Current Version | Previous Version | Text Only | Print | Product List | Glossary On
Versions: 1 2 3 4 5 6 7 8 9 10 11 12 13 14 15 16 17 18 19 20 21 22 23 24 25 26 27 28 29 30 31 32 33 34 35 36 37 38 39 40 41 42 43 44 45 46 47 48 49 50
000
ASUS44 KFWD 201915
RWRFWD
NORTH TEXAS HOURLY WEATHER ROUNDUP
NATIONAL WEATHER SERVICE FORT WORTH TX
100 PM CST WED FEB 20 2019

NOTE: "FAIR" INDICATES FEW OR NO CLOUDS BELOW 12,000 FEET WITH NO
SIGNIFICANT WEATHER AND/OR OBSTRUCTIONS TO VISIBILITY.

TXZ118-119-202000-
DALLAS/FORT WORTH METROPLEX

CITY           SKY/WX    TMP DP  RH WIND       PRES   REMARKS
DFW AIRPORT    PTSUNNY   52  34  50 VRB5      29.95F
DALLAS LOVE    PTSUNNY   52  37  56 SW6       29.97F
FTW MEACHAM    FAIR      54  31  41 NW8       29.95F
DAL-EXECUTIVE    N/A     51  32  48 VRB6      29.96F
FTW-ALLIANCE     N/A     56  32  40 W12       29.95F
FTW-NAS-JRB    PTSUNNY   57  28  33 NW10      29.95F
FTW-SPINKS     SUNNY     57  36  44 W5        29.97F
ARLINGTON      FAIR      53  34  48 VRB6      29.96F
GRAND PRAIRIE  SUNNY     54  34  47 SE6       29.98F
ADDISON        SUNNY     52  34  50 CALM      29.97F
MESQUITE       SUNNY     52  37  58 SW9       29.99F
LANCASTER      FAIR      51  36  57 S3        29.99F
$$

TXZ091>094-102>105-117-120-121-131>134-202000-
NORTH CENTRAL TEXAS

CITY           SKY/WX    TMP DP  RH WIND       PRES   REMARKS
SHRMAN/DENISON SUNNY     52  37  58 SW8       29.95F
GAINESVILLE    FAIR      53  29  39 SW12      29.95F
BOWIE          FAIR      53  29  39 SW10G17   29.92F
BRIDGEPORT     FAIR      56  30  37 W5        29.96F
DECATUR        FAIR      53  31  42 W12       29.94F
DENTON         FAIR      54  34  46 W12       29.95F
MCKINNEY       FAIR      51  34  52 W9        29.96F
BONHAM         FAIR      50  35  56 W7        29.96F
GREENVILLE     FAIR      52  37  58 SW7       29.98F
ROCKWALL       FAIR      50  37  61 SW7       29.98F
TERRELL        FAIR      49  37  63 SW8       29.99F
WAXAHACHIE     FAIR      51  39  63 SW6       29.98F
CLEBURNE       FAIR      54  32  43 VRB6G13   29.98F
GRANBURY       FAIR      58  31  36 NW10G18   29.97F
$$

TXZ083>090-098>101-113>116-127>130-139>142-154-155-202000-
WESTERN NORTH TEXAS

CITY           SKY/WX    TMP DP  RH WIND       PRES   REMARKS
WICHITA FALLS  PTSUNNY   54  30  40 SW13      29.91F
WF-KICKAPOO    FAIR      53  26  36 W9G21     29.95F
VERNON         FAIR      57  22  26 W21G28    29.90F
ABILENE        FAIR      55  21  26 W15       29.94F
ABILENE-DYESS  PTSUNNY   54  15  21 SW9       29.94F
BRECKENRIDGE   FAIR      58  25  28 NW10      29.94F
CISCO          FAIR      55  23  28 SW10      29.95F
EASTLAND       FAIR      56  23  27 W10       29.95F
RANGER         FAIR      56  25  30 W6        29.95F
MINERAL WELLS  FAIR      58  27  30 W14       29.93F
STEPHENVILLE   FAIR      57  26  30 W6        29.97F
COMANCHE       FAIR      56  31  38 CALM      29.97F
BROWNWOOD      FAIR      57  23  26 W10       29.96F
COLEMAN        FAIR      56  22  26 W7        29.96F
BRADY          FAIR      54  19  26 NW9G15    29.97F
$$

TXZ143>147-156>162-174-175-202000-
CENTRAL TEXAS

CITY           SKY/WX    TMP DP  RH WIND       PRES   REMARKS
WACO           FAIR      51  40  65 CALM      30.00F
WACO-MCGREGOR  FAIR      53  40  61 VRB3      30.00F
HILLSBORO      FAIR      49  40  70 SW5       29.98F
CORSICANA      FAIR      48  37  65 VRB3      30.01F
MEXIA          FAIR      49  37  62 NW3       29.99F
HEARNE         FAIR      51  43  72 NW8       30.03F
CAMERON        FAIR      53  40  63 CALM      30.01F
TEMPLE         FAIR      56  38  50 VRB5      30.00F
KILLEEN        FAIR      57  29  34 CALM      29.96F
KILLEEN-SKYLRK FAIR      56  34  43 CALM      29.99F
FORT HOOD      MOSUNNY   59  32  36 VRB3      30.00F
GATESVILLE     FAIR      55  28  35 NW5       30.00F
HAMILTON       FAIR      58  27  30 N9        29.97F
LAMPASAS       FAIR      54  31  40 NE3       29.97F
$$

TXZ095>097-106>112-122>126-135>138-148>153-164>167-202000-
EAST TEXAS

CITY           SKY/WX    TMP DP  RH WIND       PRES   REMARKS
PARIS          PTSUNNY   49  40  71 SW12      29.97F
SULPHUR SPRNGS FAIR      48  38  67 W6        30.00F
MOUNT PLEASANT FAIR      48  37  67 SW9       29.99F
GILMER         FAIR      49  38  64 W3        29.98F
MINEOLA        FAIR      48  37  66 W6        29.98F
TYLER          FAIR      50  37  61 NW3       29.98F
LONGVIEW       FAIR      51  42  71 W6        29.98F
MARSHALL       FAIR      47  39  72 NW5       30.00F
ATHENS         FAIR      50  36  57 W6        29.99F
PALESTINE      FAIR      51  40  64 NW5       30.01F
JACKSONVILLE   FAIR      51  41  67 NW3       29.99F
HENDERSON      FAIR      51  40  66 W5        30.00F
CENTER         FAIR      49  46  90 W5        30.00
NACOGDOCHES    FAIR      52  42  69 NW9       30.00F
LUFKIN         FAIR      51  43  74 NW6       29.99F
$$

SUPPLEMENTAL OBSERVATIONS (NWS FORT WORTH AREA)

CITY           SKY/WX    TMP DP  RH WIND       PRES   REMARKS
DENISON DAM      N/A     48  32  53 W12         N/A
CADDO GRASSLND   N/A     52  36  54 SW7         N/A
LBJ GRASSLAND    N/A     55  32  41 SW9         N/A
POSSUM KINGDOM   N/A     55  30  38 SW9         N/A
GRANBURY         N/A     57  32  38 NW10        N/A
COMANCHE         N/A     59  28  31 W3G12       N/A
MCGREGOR         N/A     54  39  58 E3          N/A
TEMPLE           N/A     57  36  44 W1G9        N/A
LAKE LIMESTONE   N/A     54  39  58 NW3         N/A
PALESTINE        N/A     55  39  54 W2          N/A
$$

SUPPLEMENTAL OBSERVATIONS (NWS NORMAN AREA)

CITY           SKY/WX    TMP DP  RH WIND       PRES   REMARKS
MILLERS CREEK    N/A     55  27  33 W18G24      N/A
$$

SUPPLEMENTAL OBSERVATIONS (NWS SAN ANGELO AREA)

CITY           SKY/WX    TMP DP  RH WIND       PRES   REMARKS
HAMBY            N/A     55  21  26 W12         N/A
IVIE RESERVOIR   N/A     55  27  33 NW8         N/A
COLORADO BEND    N/A     57  30  35 SE1         N/A
$$

SUPPLEMENTAL OBSERVATIONS (NWS SHREVEPORT AREA)

CITY           SKY/WX    TMP DP  RH WIND       PRES   REMARKS
TEXARKANA        N/A     52  39  62 NW7         N/A
LINDEN           N/A     52  39  62 W5G13       N/A
CADDO LAKE       N/A     52  39  62 NW5         N/A
LUFKIN           N/A     54  41  62 MISG        N/A
N SABINE NF      N/A     54  43  66 MISG        N/A
$$

SUPPLEMENTAL OBSERVATIONS ARE A COLLECTION OF AUTOMATED INSTRUMENTS
THAT ARE MAINTAINED BY A VARIETY OF FEDERAL AND STATE AGENCIES.
CERTAIN ELEMENTS...SUCH AS HUMIDITY VALUES AND SUSTAINED WIND
SPEEDS...MAY BE APPROXIMATED.




USA.gov is the U.S. government's official web portal to all federal, state and local government web resources and services.